NOAA 16 DEB, 42407

Orbit data source: Space-Track

NOAA 16 DEB, 42407 is space debris in SSO originally from a launch on Thu, 21 Sep 2000 UTC launched from the Air Force Western Test Range (AFWTR). Debris objects in space refer to the collection of defunct objects orbiting the Earth. Examples of debris include non-operational satellites, rocket bodies, and fragments generated from explosions, collisions, or faulty payload assembly.

Loading next visibility...
Identifier
42407, 2000-055TB
Orbit
SSO
Country
Flag of USUS
Related business
Manufacturer
Unknown
Mission
Spacecraft
Bus & Motor
Unknown
Mass
Unknown
Launch date (UTC)
2000-09-21 (26 years ago)
Launch vehicle
Unknown
Launch site
Air Force Western Test Range (AFWTR)
Object type
Payload
Rocket body
Debris
Shape & HBR
Unknown shape, 0.1 m
Radar Cross Section
Medium (>0.1 m² and <1 m²)

Expand to show TLE details & history
Last TLE update: 2 days ago

TLE from 2 days ago
0 NOAA 16 DEB
1 42407U 00055TB  26171.03674154  .00071216  00000-0  52354-2 0  9992
2 42407  98.9550  21.3044 0005076 340.1486  19.9537 15.03077533531066
Epoch: 2026-06-20T00:52Z
TLE epoch observation values (Epoch: 2026-06-20T00:52:54.469Z)
Latitude
0.00002°
Longitude
99.82032°
Altitude
557.122 km
Speed
7.585 km/s
True Right ascension
01h 25m 13s
True Declination
0° 00' 00"
Sunlit
Object was in daylight at epoch
Visualization orbit readout
Latitude
Unknown
Longitude
Unknown
Altitude
Unknown
Speed
Unknown
Apparent Right ascension
Unknown
Apparent Declination
Unknown
Sunlit
N/A
Visualization observer readout
Local Sidereal Time
21:34:54
Azimuth
Unknown
Elevation
Unknown
Doppler factor
Unknown
Orbital elements
Apogee altitude
557.993 km
Perigee altitude
550.955 km
Semi-major axis
6,932.611 km
Eccentricity
0.00051
Inclination
98.955°
RAAN
21.3044°
Arg. of periapsis
340.1486°
True anomaly
19.97356°
Mean anomaly
19.9537°
Eccentric anomaly
19.96363°
Mean motion
3.76009 °/min
Orbital period
95.74 mins
BSTAR
0.0052354
Loading maneuver chart data...
Computing Atmospheric mass density...
Loading historical data...
Loading historical data...
Loading historical data...
Loading historical data...
Loading historical data...
Loading historical data...
Loading historical data...

Documentation

Showing up to 5 results
|